Voltar ao catálogo

STARLINK-34203

AtivoComunicaçõesVLEO
NORAD 64246·PAYLOAD·🇺🇸 United States

Lançado Jun 3, 2025 de Cape Canaveral Space Force Station

Loading…

Próximas Passagens (próximas 24 horas)

TLE

AtualizadoSource: CelesTrak SupGP

Época: Sep 15, 2026, 03:44 UTC

1 64246C 25119P   26258.15604167  .00027779  00000+0  10061-2 0  2582
2 64246  43.0013 316.9594 0001458 260.9575 211.8923 15.27566495    11

Acompanhe STARLINK-34203 em tempo real com AllMySat

Download on the App Store